Hourly Data Report for August 27, 2005

TORONTO CITY
ONTARIO

43°40'00.000" N
79°24'00.000" W
112.50 m
6158355
71508
XTO

Download Data

Hourly Data (August 2005)
Hourly Data Report for August 27, 2005
TIME
LST
Temp Definition
°C
Dew Point Definition
°C
Rel Hum Definition
%
Precip. Amount Definition
mm

Wind Dir Definition
10's deg

Wind Spd Definition
km/h
Visibility Definition
km
Stn Press Definition
kPa
Hmdx Definition


Wind Chill Definition


Weather Definition


00:00 22.0 18.6 81   LegendMM LegendMM   99.95 28   LegendNANA
01:00 21.6 18.7 84   LegendMM LegendMM   99.93 28   LegendNANA
02:00 21.2 18.9 87   LegendMM LegendMM   99.88 28   LegendNANA
03:00 20.6 18.7 89   LegendMM LegendMM   99.84 27   LegendNANA
04:00 20.2 19.2 94   LegendMM LegendMM   99.83 27   LegendNANA
05:00 20.3 19.4 95   LegendMM LegendMM   99.83 27   LegendNANA
06:00 20.3 19.3 94   LegendMM LegendMM   99.83 27   LegendNANA
07:00 21.4 19.5 89   LegendMM LegendMM   99.82 29   LegendNANA
08:00 22.3 18.4 79   LegendMM LegendMM   99.81 29   LegendNANA
09:00 22.8 18.1 75   LegendMM LegendMM   99.79 29   LegendNANA
10:00 23.4 17.6 70   LegendMM LegendMM   99.76 29   LegendNANA
11:00 23.8 17.9 70   LegendMM LegendMM   99.74 30   LegendNANA
12:00 24.4 18.2 68   LegendMM LegendMM   99.70 31   LegendNANA
13:00 22.7 18.1 75   LegendMM LegendMM   99.63 29   LegendNANA
14:00 22.2 18.6 80   LegendMM LegendMM   99.61 29   LegendNANA
15:00 22.0 19.8 87   LegendMM LegendMM   99.52 29   LegendNANA
16:00 22.4 19.5 84   LegendMM LegendMM   99.47 30   LegendNANA
17:00 22.9 19.7 82   LegendMM LegendMM   99.43 30   LegendNANA
18:00 21.4 20.0 92   LegendMM LegendMM   99.42 29   LegendNANA
19:00 20.8 19.7 93   LegendMM LegendMM   99.41 28   LegendNANA
20:00 20.3 19.7 96   LegendMM LegendMM   99.42 28   LegendNANA
21:00 20.3 19.9 98   LegendMM LegendMM   99.41 28   LegendNANA
22:00 20.9 20.6 98   LegendMM LegendMM   99.45 29   LegendNANA
23:00 20.7 20.3 98   LegendMM LegendMM   99.46 29   LegendNANA

Notes on Data Quality.

Legend

  • E = Estimated
  • M = Missing
  • NA = Not Available*
  • [empty] = Indicates an unobserved value
Date modified: